Location: Asheville, NC
(35.6000°N, 82.5500°W)
Time: 19:15:55
(UTC-04:00)

Vanguard 2 Rocket - Pass Details

Date: 13 December 2017
Orbit: 553 x 3328 km, 32.9° (Epoch: 21 April)

Event Time Altitude Azimuth Distance (km) Brightness Sun altitude
Rises 17:26:48 0° 204° (SSW) 4,215 11.2 -2.4°
Reaches altitude 10° 17:29:41 10° 193° (SSW) 3,582 10.6 -3.0°
Maximum altitude 17:37:50 30° 136° (SE) 3,153 9.5 -4.5°
Drops below altitude 10° 17:50:15 10° 84° (E) 5,563 10.3 -6.7°
Enters shadow 17:52:32 - 80° (E) 6,102 10.5 -7.2°
Sets 17:56:06 0° 76° (ENE) 6,936 - -7.8°
